Weather History for KNXP - July, 2013

Change the Weather History Date:

Thursday, July 4, 2013

  Actual Average Record
Temperature  
Mean Temperature 100 °F -  
Max Temperature 111 °F 99 °F 111 °F (2007)
Min Temperature 88 °F 72 °F 66 °F (2000)
Cooling Degree Days 34    
Growing Degree Days 50 (Base 50)    
Moisture  
Dew Point 44 °F    
Average Humidity 16    
Maximum Humidity 23    
Minimum Humidity 11    
Precipitation  
Precipitation 0.00 in - - ()
Sea Level Pressure  
Sea Level Pressure 29.66 in    
Wind  
Wind Speed 11 mph (West)    
Max Wind Speed 25 mph    
Max Gust Speed 32 mph    
Visibility 10 miles    
Events      
Averages and records for this station are not official NWS values.
T = Trace of Precipitation, MM = Missing Value Source: NWS Daily Summary

Daily Weather History Graph

Daily Weather History Graph

Search for Another Location

Airport or City:

Trip Planner

Search our weather history database for the weather conditions in past years. The results will help you decide how hot, cold, wet, or windy it might be!

Date:

Astronomy

Jul. 04, 2013 Rise Set
Actual Time 5:37 AM PDT 8:00 PM PDT
Civil Twilight 5:08 AM PDT 8:29 PM PDT
Nautical Twilight 4:32 AM PDT 9:05 PM PDT
Astronomical Twilight 3:53 AM PDT 9:44 PM PDT
Moon 2:54 AM PDT (7/4) 5:11 PM PDT (7/4)
Length of Visible Light 15h 20m
Length of Day
14h 22m
Waning Crescent, 11% of the Moon is Illuminated
Jul 4
Waning Crescent
Jul 8
New
Jul 15
First Quarter
Jul 22
Full
Jul 29
Last Quarter

Hourly Weather History & Observations

Time (PDT) Temp. Dew Point Humidity Pressure Visibility Wind Dir Wind Speed Gust Speed Precip Events Conditions
12:56 AM 96.1 °F 45.0 °F 17% 29.68 in 10.0 mi WNW 16.1 mph 25.3 mph N/A   Clear
1:56 AM 93.0 °F 45.0 °F 19% 29.69 in 10.0 mi NW 10.4 mph - N/A   Clear
2:56 AM 91.9 °F 45.0 °F 20% 29.68 in 10.0 mi NW 8.1 mph - N/A   Clear
3:56 AM 91.0 °F 46.0 °F 21% 29.67 in 10.0 mi West 8.1 mph - N/A   Clear
4:56 AM 88.0 °F 46.0 °F 23% 29.68 in 10.0 mi NNW 5.8 mph - N/A   Clear
5:56 AM 89.1 °F 46.0 °F 22% 29.68 in 10.0 mi WNW 6.9 mph - N/A   Clear
6:56 AM 89.1 °F 46.0 °F 22% 29.69 in 10.0 mi WNW 4.6 mph - N/A   Clear
7:56 AM 93.0 °F 46.0 °F 20% 29.70 in 10.0 mi WNW 8.1 mph - N/A   Clear
8:56 AM 97.0 °F 46.9 °F 18% 29.71 in 10.0 mi NW 10.4 mph - N/A   Clear
9:56 AM 102.0 °F 45.0 °F 14% 29.71 in 10.0 mi WSW 10.4 mph - N/A   Clear
10:56 AM 102.9 °F 43.0 °F 13% 29.71 in 10.0 mi West 8.1 mph - N/A   Clear
11:56 AM 105.1 °F 43.0 °F 12% 29.70 in 10.0 mi SW 4.6 mph - N/A   Clear
12:56 PM 106.0 °F 43.0 °F 12% 29.68 in 10.0 mi Calm Calm - N/A   Clear
1:56 PM 108.0 °F 44.1 °F 12% 29.66 in 10.0 mi Variable 6.9 mph - N/A   Clear
2:56 PM 111.0 °F 44.1 °F 11% 29.63 in 10.0 mi South 10.4 mph - N/A   Clear
3:56 PM 109.9 °F 43.0 °F 11% 29.60 in 10.0 mi SSW 17.3 mph - N/A   Clear
4:56 PM 109.0 °F 43.0 °F 11% 29.59 in 10.0 mi SW 18.4 mph - N/A   Clear
5:56 PM 107.1 °F 44.1 °F 12% 29.58 in 10.0 mi SSW 23.0 mph - N/A   Clear
6:56 PM 102.9 °F 44.1 °F 14% 29.59 in 10.0 mi SW 25.3 mph 32.2 mph N/A   Clear
7:56 PM 100.0 °F 43.0 °F 14% 29.60 in 10.0 mi SW 20.7 mph - N/A   Clear
8:56 PM 96.1 °F 43.0 °F 16% 29.64 in 10.0 mi West 13.8 mph - N/A   Clear
9:56 PM 96.1 °F 43.0 °F 16% 29.67 in 10.0 mi West 10.4 mph - N/A   Clear
10:56 PM 93.0 °F 44.1 °F 18% 29.68 in 10.0 mi WSW 9.2 mph - N/A   Clear
11:56 PM 90.0 °F 41.0 °F 18% 29.69 in 10.0 mi West 9.2 mph - N/A   Clear